Time,TemperatureF,DewpointF,PressureIn,WindDirection,WindDirectionDegrees,WindSpeedMPH,WindSpeedGustMPH,Humidity,HourlyPrecipIn,Conditions,Clouds,dailyrainin,SoftwareType,DateUTC
2013-01-28 00:08:00,27.8,24.0,30.56,WSW,240,0.0,0.0,85,0.00,,,0.00,weatherlink.com 1.10,2013-01-28 05:08:00,
2013-01-28 00:23:00,28.0,24.0,30.55,WSW,240,0.0,0.0,86,0.00,,,0.00,weatherlink.com 1.10,2013-01-28 05:23:00,
2013-01-28 00:38:00,28.2,25.0,30.54,WSW,240,0.0,0.0,86,0.00,,,0.00,weatherlink.com 1.10,2013-01-28 05:38:00,
2013-01-28 00:53:00,29.0,26.0,30.54,WSW,240,0.0,0.0,87,0.00,,,0.00,weatherlink.com 1.10,2013-01-28 05:53:00,
2013-01-28 01:08:00,29.1,25.0,30.54,WSW,240,0.0,0.0,84,0.00,,,0.00,weatherlink.com 1.10,2013-01-28 06:08:00,
2013-01-28 01:23:00,29.7,25.0,30.53,SW,233,0.0,0.0,82,0.00,,,0.00,weatherlink.com 1.10,2013-01-28 06:23:00,
2013-01-28 01:38:00,30.4,26.0,30.52,WSW,239,2.0,3.0,82,0.00,,,0.00,weatherlink.com 1.10,2013-01-28 06:38:00,
2013-01-28 01:53:00,31.0,26.0,30.52,SW,217,3.0,4.0,81,0.00,,,0.00,weatherlink.com 1.10,2013-01-28 06:53:00,
2013-01-28 02:08:00,31.5,26.0,30.51,SSW,205,1.0,4.0,79,0.00,,,0.00,weatherlink.com 1.10,2013-01-28 07:08:00,
2013-01-28 02:24:00,31.9,26.0,30.51,SW,236,1.0,5.0,79,0.00,,,0.00,weatherlink.com 1.10,2013-01-28 07:24:00,
2013-01-28 02:39:00,32.1,26.0,30.50,West,262,0.0,3.0,78,0.00,,,0.00,weatherlink.com 1.10,2013-01-28 07:39:00,
2013-01-28 02:54:00,32.2,26.0,30.49,SW,225,1.0,5.0,77,0.00,,,0.00,weatherlink.com 1.10,2013-01-28 07:54:00,
2013-01-28 03:09:00,32.3,26.0,30.49,WSW,250,1.0,4.0,77,0.00,,,0.00,weatherlink.com 1.10,2013-01-28 08:09:00,
2013-01-28 03:23:00,32.7,26.0,30.48,SSW,212,4.0,5.0,76,0.00,,,0.00,weatherlink.com 1.10,2013-01-28 08:23:00,
2013-01-28 03:39:00,33.1,26.0,30.48,SW,231,4.0,6.0,74,0.00,,,0.00,weatherlink.com 1.10,2013-01-28 08:39:00,
2013-01-28 03:54:00,33.4,26.0,30.48,WSW,245,2.0,6.0,73,0.00,,,0.00,weatherlink.com 1.10,2013-01-28 08:54:00,
2013-01-28 04:09:00,33.6,26.0,30.47,WSW,252,1.0,5.0,73,0.00,,,0.00,weatherlink.com 1.10,2013-01-28 09:09:00,
2013-01-28 04:24:00,33.6,26.0,30.47,West,280,3.0,7.0,73,0.00,,,0.00,weatherlink.com 1.10,2013-01-28 09:24:00,
2013-01-28 04:39:00,33.5,26.0,30.46,WSW,249,3.0,6.0,74,0.00,,,0.00,weatherlink.com 1.10,2013-01-28 09:39:00,
2013-01-28 04:54:00,33.5,26.0,30.46,SW,218,3.0,5.0,74,0.00,,,0.00,weatherlink.com 1.10,2013-01-28 09:54:00,
2013-01-28 05:09:00,33.5,26.0,30.45,WSW,253,6.0,7.0,75,0.00,,,0.00,weatherlink.com 1.10,2013-01-28 10:09:00,
2013-01-28 05:24:00,33.6,26.0,30.45,West,273,2.0,6.0,75,0.00,,,0.00,weatherlink.com 1.10,2013-01-28 10:24:00,
2013-01-28 05:39:00,33.2,27.0,30.45,SW,221,2.0,6.0,78,0.00,,,0.00,weatherlink.com 1.10,2013-01-28 10:39:00,
2013-01-28 05:54:00,32.8,28.0,30.45,SW,225,3.0,5.0,81,0.00,,,0.00,weatherlink.com 1.10,2013-01-28 10:54:00,
2013-01-28 06:09:00,32.8,28.0,30.45,WSW,250,2.0,5.0,81,0.00,,,0.00,weatherlink.com 1.10,2013-01-28 11:09:00,
2013-01-28 06:24:00,32.8,28.0,30.45,SSW,204,1.0,5.0,82,0.00,,,0.00,weatherlink.com 1.10,2013-01-28 11:24:00,
2013-01-28 06:39:00,32.7,28.0,30.45,WSW,255,2.0,5.0,84,0.00,,,0.00,weatherlink.com 1.10,2013-01-28 11:39:00,
2013-01-28 06:54:00,32.6,29.0,30.45,SW,228,4.0,5.0,85,0.00,,,0.00,weatherlink.com 1.10,2013-01-28 11:54:00,
2013-01-28 07:09:00,32.6,29.0,30.45,SW,229,3.0,5.0,86,0.00,,,0.00,weatherlink.com 1.10,2013-01-28 12:09:00,
2013-01-28 07:24:00,32.6,29.0,30.45,SW,228,2.0,8.0,86,0.00,,,0.00,weatherlink.com 1.10,2013-01-28 12:24:00,
2013-01-28 07:39:00,32.7,29.0,30.45,West,260,4.0,7.0,87,0.00,,,0.00,weatherlink.com 1.10,2013-01-28 12:39:00,
2013-01-28 07:54:00,32.7,29.0,30.45,SW,226,4.0,7.0,87,0.00,,,0.00,weatherlink.com 1.10,2013-01-28 12:54:00,
2013-01-28 08:09:00,32.8,30.0,30.43,SSW,202,4.0,10.0,88,0.01,,,0.01,weatherlink.com 1.10,2013-01-28 13:09:00,
2013-01-28 08:24:00,32.7,30.0,30.43,WSW,256,3.0,8.0,89,0.01,,,0.01,weatherlink.com 1.10,2013-01-28 13:24:00,
2013-01-28 08:39:00,32.8,30.0,30.42,SSW,212,3.0,7.0,89,0.01,,,0.01,weatherlink.com 1.10,2013-01-28 13:39:00,
2013-01-28 08:54:00,32.9,30.0,30.43,WSW,240,4.0,9.0,90,0.02,,,0.02,weatherlink.com 1.10,2013-01-28 13:54:00,
2013-01-28 09:09:00,32.9,30.0,30.43,SSW,208,1.0,6.0,90,0.01,,,0.02,weatherlink.com 1.10,2013-01-28 14:09:00,
2013-01-28 09:24:00,32.9,31.0,30.41,SSW,211,0.0,5.0,91,0.02,,,0.03,weatherlink.com 1.10,2013-01-28 14:24:00,
2013-01-28 09:39:00,32.9,31.0,30.41,WSW,245,4.0,8.0,91,0.04,,,0.05,weatherlink.com 1.10,2013-01-28 14:39:00,
2013-01-28 09:54:00,33.0,31.0,30.40,SSW,211,4.0,6.0,92,0.04,,,0.06,weatherlink.com 1.10,2013-01-28 14:54:00,
2013-01-28 10:09:00,33.1,31.0,30.40,SW,233,5.0,9.0,92,0.06,,,0.08,weatherlink.com 1.10,2013-01-28 15:09:00,
2013-01-28 10:24:00,33.3,31.0,30.39,WSW,245,3.0,7.0,92,0.06,,,0.09,weatherlink.com 1.10,2013-01-28 15:24:00,
2013-01-28 10:39:00,33.6,32.0,30.38,SW,232,4.0,10.0,92,0.06,,,0.11,weatherlink.com 1.10,2013-01-28 15:39:00,
2013-01-28 10:54:00,33.8,32.0,30.38,WSW,255,2.0,10.0,92,0.06,,,0.12,weatherlink.com 1.10,2013-01-28 15:54:00,
2013-01-28 11:09:00,34.1,32.0,30.36,WSW,249,3.0,9.0,92,0.04,,,0.12,weatherlink.com 1.10,2013-01-28 16:09:00,
2013-01-28 11:24:00,34.3,32.0,30.34,SW,229,7.0,9.0,92,0.03,,,0.13,weatherlink.com 1.10,2013-01-28 16:24:00,
2013-01-28 11:39:00,34.4,32.0,30.34,WSW,245,5.0,9.0,92,0.03,,,0.14,weatherlink.com 1.10,2013-01-28 16:39:00,
2013-01-28 11:55:00,34.7,33.0,30.32,WSW,253,3.0,8.0,92,0.02,,,0.14,weatherlink.com 1.10,2013-01-28 16:55:00,
2013-01-28 12:10:00,34.9,33.0,30.30,West,278,4.0,12.0,92,0.02,,,0.14,weatherlink.com 1.10,2013-01-28 17:10:00,
2013-01-28 12:25:00,35.3,33.0,30.29,WSW,253,8.0,12.0,92,0.02,,,0.15,weatherlink.com 1.10,2013-01-28 17:25:00,
2013-01-28 12:40:00,35.7,33.0,30.27,WSW,246,4.0,12.0,91,0.01,,,0.15,weatherlink.com 1.10,2013-01-28 17:40:00,
2013-01-28 12:55:00,36.1,34.0,30.24,SW,215,4.0,13.0,91,0.01,,,0.15,weatherlink.com 1.10,2013-01-28 17:55:00,
2013-01-28 13:10:00,36.7,34.0,30.24,NW,310,7.0,10.0,90,0.01,,,0.15,weatherlink.com 1.10,2013-01-28 18:10:00,
2013-01-28 13:25:00,37.2,35.0,30.23,West,267,5.0,10.0,90,0.00,,,0.15,weatherlink.com 1.10,2013-01-28 18:25:00,
2013-01-28 13:40:00,37.5,35.0,30.22,WSW,250,4.0,9.0,89,0.00,,,0.15,weatherlink.com 1.10,2013-01-28 18:40:00,
2013-01-28 13:55:00,38.4,36.0,30.21,West,270,2.0,8.0,89,0.00,,,0.15,weatherlink.com 1.10,2013-01-28 18:55:00,
2013-01-28 14:14:00,38.9,36.0,30.20,WSW,246,1.0,11.0,88,0.00,,,0.15,weatherlink.com 1.10,2013-01-28 19:14:00,
2013-01-28 14:25:00,39.3,36.0,30.19,WSW,257,5.0,7.0,88,0.00,,,0.15,weatherlink.com 1.10,2013-01-28 19:25:00,
2013-01-28 14:40:00,40.2,36.0,30.18,SW,224,6.0,12.0,86,0.00,,,0.15,weatherlink.com 1.10,2013-01-28 19:40:00,
2013-01-28 14:55:00,40.5,37.0,30.18,SW,222,5.0,8.0,86,0.00,,,0.15,weatherlink.com 1.10,2013-01-28 19:55:00,
2013-01-28 15:10:00,40.7,37.0,30.17,West,263,3.0,6.0,86,0.00,,,0.15,weatherlink.com 1.10,2013-01-28 20:10:00,
2013-01-28 15:25:00,40.9,37.0,30.17,WSW,237,3.0,4.0,86,0.00,,,0.15,weatherlink.com 1.10,2013-01-28 20:25:00,
2013-01-28 15:40:00,40.7,37.0,30.16,West,281,1.0,4.0,86,0.00,,,0.15,weatherlink.com 1.10,2013-01-28 20:40:00,
2013-01-28 15:55:00,40.9,37.0,30.16,WSW,238,2.0,3.0,86,0.00,,,0.15,weatherlink.com 1.10,2013-01-28 20:55:00,
2013-01-28 16:10:00,41.1,37.0,30.16,SSW,208,1.0,3.0,86,0.00,,,0.15,weatherlink.com 1.10,2013-01-28 21:10:00,
2013-01-28 16:25:00,41.2,37.0,30.15,SW,233,1.0,2.0,86,0.00,,,0.15,weatherlink.com 1.10,2013-01-28 21:25:00,
2013-01-28 16:40:00,41.4,38.0,30.15,WSW,250,0.0,1.0,86,0.00,,,0.15,weatherlink.com 1.10,2013-01-28 21:40:00,
2013-01-28 16:56:00,41.2,37.0,30.15,North,349,0.0,1.0,86,0.00,,,0.15,weatherlink.com 1.10,2013-01-28 21:56:00,
2013-01-28 17:11:00,40.9,37.0,30.15,North,349,0.0,1.0,86,0.00,,,0.15,weatherlink.com 1.10,2013-01-28 22:11:00,
2013-01-28 17:26:00,40.6,37.0,30.14,North,349,0.0,0.0,88,0.00,,,0.15,weatherlink.com 1.10,2013-01-28 22:26:00,
2013-01-28 17:40:00,40.4,37.0,30.14,North,349,0.0,0.0,88,0.00,,,0.15,weatherlink.com 1.10,2013-01-28 22:40:00,
2013-01-28 17:56:00,40.1,37.0,30.14,NNW,348,0.0,1.0,89,0.00,,,0.15,weatherlink.com 1.10,2013-01-28 22:56:00,
2013-01-28 18:10:00,39.3,37.0,30.14,NE,34,0.0,1.0,91,0.00,,,0.15,weatherlink.com 1.10,2013-01-28 23:10:00,
2013-01-28 18:25:00,38.9,37.0,30.14,NE,40,0.0,1.0,91,0.00,,,0.15,weatherlink.com 1.10,2013-01-28 23:25:00,
2013-01-28 18:40:00,38.8,36.0,30.14,NE,40,0.0,0.0,91,0.00,,,0.15,weatherlink.com 1.10,2013-01-28 23:40:00,
2013-01-28 18:55:00,38.6,36.0,30.14,NE,39,0.0,1.0,91,0.00,,,0.15,weatherlink.com 1.10,2013-01-28 23:55:00,
2013-01-28 19:10:00,37.7,36.0,30.13,NE,40,0.0,1.0,92,0.00,,,0.15,weatherlink.com 1.10,2013-01-29 00:10:00,
2013-01-28 19:25:00,37.8,36.0,30.13,NE,39,0.0,0.0,93,0.00,,,0.15,weatherlink.com 1.10,2013-01-29 00:25:00,
2013-01-28 19:40:00,37.9,36.0,30.12,NE,40,0.0,0.0,93,0.00,,,0.15,weatherlink.com 1.10,2013-01-29 00:40:00,
2013-01-28 19:56:00,37.7,36.0,30.12,NE,40,0.0,0.0,93,0.00,,,0.15,weatherlink.com 1.10,2013-01-29 00:56:00,
2013-01-28 20:11:00,37.1,35.0,30.12,NW,308,0.0,2.0,93,0.00,,,0.15,weatherlink.com 1.10,2013-01-29 01:11:00,
2013-01-28 20:26:00,37.0,36.0,30.11,SW,232,1.0,1.0,94,0.00,,,0.15,weatherlink.com 1.10,2013-01-29 01:26:00,
2013-01-28 20:41:00,36.4,35.0,30.11,NNW,344,1.0,2.0,94,0.00,,,0.15,weatherlink.com 1.10,2013-01-29 01:41:00,
2013-01-28 20:56:00,36.7,35.0,30.10,SW,233,1.0,1.0,95,0.00,,,0.15,weatherlink.com 1.10,2013-01-29 01:56:00,
2013-01-28 21:11:00,36.2,35.0,30.09,SW,235,1.0,1.0,95,0.00,,,0.15,weatherlink.com 1.10,2013-01-29 02:11:00,
2013-01-28 21:26:00,35.6,34.0,30.10,West,269,1.0,1.0,94,0.00,,,0.15,weatherlink.com 1.10,2013-01-29 02:26:00,
2013-01-28 21:41:00,35.1,34.0,30.09,NNW,327,0.0,2.0,95,0.00,,,0.15,weatherlink.com 1.10,2013-01-29 02:41:00,
2013-01-28 21:56:00,35.4,34.0,30.09,SW,219,1.0,1.0,95,0.00,,,0.15,weatherlink.com 1.10,2013-01-29 02:56:00,
2013-01-28 22:11:00,35.9,35.0,30.08,SW,218,0.0,1.0,95,0.00,,,0.15,weatherlink.com 1.10,2013-01-29 03:11:00,
2013-01-28 22:26:00,39.5,39.0,30.08,SW,233,6.0,6.0,96,0.00,,,0.15,weatherlink.com 1.10,2013-01-29 03:26:00,
2013-01-28 22:41:00,46.1,43.0,30.07,WNW,287,6.0,11.0,88,0.00,,,0.15,weatherlink.com 1.10,2013-01-29 03:41:00,
2013-01-28 22:56:00,48.0,43.0,30.08,WSW,252,3.0,9.0,83,0.00,,,0.15,weatherlink.com 1.10,2013-01-29 03:56:00,
2013-01-28 23:11:00,48.9,44.0,30.09,NW,319,1.0,8.0,82,0.00,,,0.15,weatherlink.com 1.10,2013-01-29 04:11:00,
2013-01-28 23:26:00,49.3,44.0,30.09,NNW,333,1.0,7.0,82,0.00,,,0.15,weatherlink.com 1.10,2013-01-29 04:26:00,
2013-01-28 23:41:00,49.5,44.0,30.09,WSW,250,2.0,6.0,81,0.00,,,0.15,weatherlink.com 1.10,2013-01-29 04:41:00,
2013-01-28 23:56:00,49.6,44.0,30.09,West,271,0.0,6.0,82,0.00,,,0.15,weatherlink.com 1.10,2013-01-29 04:56:00,